Time,TemperatureF,DewpointF,PressureIn,WindDirection,WindDirectionDegrees,WindSpeedMPH,WindSpeedGustMPH,Humidity,HourlyPrecipIn,Conditions,Clouds,dailyrainin,SoftwareType,DateUTC
2013-07-01 00:01:00,77.5,68.6,30.03,North,0,0.0,0.0,74,0.00,,SCT120,0.00,VWS V14.01,2013-07-01 04:01:00,
2013-07-01 00:06:00,77.7,69.2,30.03,North,0,0.0,0.0,75,0.00,,SCT120,0.00,VWS V14.01,2013-07-01 04:06:00,
2013-07-01 00:11:00,77.5,69.0,30.03,North,0,0.0,0.0,75,0.00,,SCT120,0.00,VWS V14.01,2013-07-01 04:11:00,
2013-07-01 00:16:00,77.4,68.4,30.03,North,0,0.0,0.0,74,0.00,,SCT120,0.00,VWS V14.01,2013-07-01 04:16:00,
2013-07-01 00:21:00,77.2,68.3,30.03,North,0,0.0,0.0,74,0.00,,SCT120,0.00,VWS V14.01,2013-07-01 04:21:00,
2013-07-01 00:26:00,77.2,68.7,30.00,North,0,0.0,0.0,75,0.00,,SCT120,0.00,VWS V14.01,2013-07-01 04:26:00,
2013-07-01 00:31:00,77.4,68.8,30.00,North,0,0.0,0.0,75,0.00,,SCT120,0.00,VWS V14.01,2013-07-01 04:31:00,
2013-07-01 00:36:00,77.4,68.8,30.00,North,0,0.0,0.0,75,0.00,,SCT120,0.00,VWS V14.01,2013-07-01 04:36:00,
2013-07-01 00:41:00,77.0,68.5,30.00,North,0,0.0,0.0,75,0.00,,SCT120,0.00,VWS V14.01,2013-07-01 04:41:00,
2013-07-01 00:46:00,76.8,68.3,30.00,North,0,0.0,0.0,75,0.00,,SCT120,0.00,VWS V14.01,2013-07-01 04:46:00,
2013-07-01 00:51:00,76.6,68.5,30.00,North,0,0.0,0.0,76,0.00,,SCT120,0.00,VWS V14.01,2013-07-01 04:51:00,
2013-07-01 00:56:00,76.5,68.3,30.00,North,0,0.0,0.0,76,0.00,,SCT120,0.00,VWS V14.01,2013-07-01 04:56:00,
2013-07-01 01:01:00,76.6,68.5,30.00,North,0,0.0,0.0,76,0.00,,SCT120,0.00,VWS V14.01,2013-07-01 05:01:00,
2013-07-01 01:06:00,76.8,69.1,30.00,North,0,0.0,0.0,77,0.00,,SCT120,0.00,VWS V14.01,2013-07-01 05:06:00,
2013-07-01 01:11:00,77.0,68.9,30.00,North,0,0.0,0.0,76,0.00,,SCT120,0.00,VWS V14.01,2013-07-01 05:11:00,
2013-07-01 01:16:00,77.0,69.2,30.00,North,0,0.0,0.0,77,0.00,,SCT120,0.00,VWS V14.01,2013-07-01 05:16:00,
2013-07-01 01:21:00,76.8,69.1,30.00,North,0,0.0,0.0,77,0.00,,SCT120,0.00,VWS V14.01,2013-07-01 05:21:00,
2013-07-01 01:26:00,76.6,68.9,29.97,North,0,0.0,0.0,77,0.00,,SCT120,0.00,VWS V14.01,2013-07-01 05:26:00,
2013-07-01 01:31:00,76.5,68.7,29.97,North,0,0.0,0.0,77,0.00,,SCT120,0.00,VWS V14.01,2013-07-01 05:31:00,
2013-07-01 01:36:00,76.5,68.7,29.97,North,0,0.0,0.0,77,0.00,,SCT120,0.00,VWS V14.01,2013-07-01 05:36:00,
2013-07-01 01:41:00,76.3,68.6,30.00,North,0,0.0,0.0,77,0.00,,SCT120,0.00,VWS V14.01,2013-07-01 05:41:00,
2013-07-01 01:46:00,76.3,68.6,30.00,North,0,0.0,0.0,77,0.00,,SCT120,0.00,VWS V14.01,2013-07-01 05:46:00,
2013-07-01 01:51:00,76.3,68.9,30.00,North,0,0.0,0.0,78,0.00,,SCT120,0.00,VWS V14.01,2013-07-01 05:51:00,
2013-07-01 01:56:00,76.5,69.1,30.00,North,0,0.0,0.0,78,0.00,,SCT120,0.00,VWS V14.01,2013-07-01 05:56:00,
2013-07-01 02:01:00,76.5,69.1,30.00,North,0,0.0,0.0,78,0.00,,SCT120,0.00,VWS V14.01,2013-07-01 06:01:00,
2013-07-01 02:06:00,76.3,68.9,30.00,North,0,0.0,0.0,78,0.00,,SCT120,0.00,VWS V14.01,2013-07-01 06:06:00,
2013-07-01 02:11:00,76.3,68.9,30.00,North,0,0.0,0.0,78,0.00,,SCT120,0.00,VWS V14.01,2013-07-01 06:11:00,
2013-07-01 02:16:00,76.1,69.1,30.00,North,0,0.0,0.0,79,0.00,,SCT120,0.00,VWS V14.01,2013-07-01 06:16:00,
2013-07-01 02:21:00,75.9,68.9,30.00,North,0,0.0,0.0,79,0.00,,SCT120,0.00,VWS V14.01,2013-07-01 06:21:00,
2013-07-01 02:26:00,75.9,68.9,30.00,North,0,0.0,0.0,79,0.00,,SCT120,0.00,VWS V14.01,2013-07-01 06:26:00,
2013-07-01 02:31:00,75.7,68.8,30.00,North,0,0.0,0.0,79,0.00,,SCT120,0.00,VWS V14.01,2013-07-01 06:31:00,
2013-07-01 02:36:00,75.7,69.1,30.00,North,0,0.0,0.0,80,0.00,,SCT120,0.00,VWS V14.01,2013-07-01 06:36:00,
2013-07-01 02:41:00,75.9,69.3,30.00,North,0,0.0,0.0,80,0.00,,SCT120,0.00,VWS V14.01,2013-07-01 06:41:00,
2013-07-01 02:46:00,75.7,69.1,30.00,North,0,0.0,0.0,80,0.00,,SCT120,0.00,VWS V14.01,2013-07-01 06:46:00,
2013-07-01 02:51:00,75.7,69.1,30.00,North,0,0.0,0.0,80,0.00,,SCT120,0.00,VWS V14.01,2013-07-01 06:51:00,
2013-07-01 02:56:00,75.7,69.1,30.00,North,0,0.0,0.0,80,0.00,,SCT120,0.00,VWS V14.01,2013-07-01 06:56:00,
2013-07-01 03:01:00,75.6,69.0,30.00,North,0,0.0,0.0,80,0.00,,SCT120,0.00,VWS V14.01,2013-07-01 07:01:00,
2013-07-01 03:06:00,75.6,69.3,30.00,North,0,0.0,0.0,81,0.00,,SCT120,0.00,VWS V14.01,2013-07-01 07:06:00,
2013-07-01 03:11:00,75.7,69.5,30.00,North,0,0.0,0.0,81,0.00,,SCT120,0.00,VWS V14.01,2013-07-01 07:11:00,
2013-07-01 03:16:00,75.4,69.2,30.00,North,0,0.0,0.0,81,0.00,,SCT120,0.00,VWS V14.01,2013-07-01 07:16:00,
2013-07-01 03:21:00,75.4,69.2,30.00,North,0,0.0,0.0,81,0.00,,SCT120,0.00,VWS V14.01,2013-07-01 07:21:00,
2013-07-01 03:26:00,75.4,69.2,30.00,North,0,0.0,0.0,81,0.00,,SCT120,0.00,VWS V14.01,2013-07-01 07:26:00,
2013-07-01 03:31:00,75.2,69.0,30.00,North,0,0.0,0.0,81,0.00,,SCT120,0.00,VWS V14.01,2013-07-01 07:31:00,
2013-07-01 03:36:00,75.2,69.0,30.00,North,0,0.0,0.0,81,0.00,,SCT120,0.00,VWS V14.01,2013-07-01 07:36:00,
2013-07-01 03:41:00,75.2,69.3,30.00,North,0,0.0,0.0,82,0.00,,SCT120,0.00,VWS V14.01,2013-07-01 07:41:00,
2013-07-01 03:46:00,75.2,69.3,30.00,North,0,0.0,0.0,82,0.00,,SCT120,0.00,VWS V14.01,2013-07-01 07:46:00,
2013-07-01 03:51:00,75.4,69.5,30.00,North,0,0.0,0.0,82,0.00,,SCT120,0.00,VWS V14.01,2013-07-01 07:51:00,
2013-07-01 03:56:00,75.2,69.3,30.00,North,0,0.0,0.0,82,0.00,,SCT120,0.00,VWS V14.01,2013-07-01 07:56:00,
2013-07-01 04:01:00,75.2,69.3,30.00,North,0,0.0,0.0,82,0.00,,SCT120,0.00,VWS V14.01,2013-07-01 08:01:00,
2013-07-01 04:06:00,75.2,69.3,30.00,North,0,0.0,0.0,82,0.00,,SCT120,0.00,VWS V14.01,2013-07-01 08:06:00,
2013-07-01 04:11:00,75.4,69.5,30.00,North,0,0.0,0.0,82,0.00,,SCT120,0.00,VWS V14.01,2013-07-01 08:11:00,
2013-07-01 04:16:00,75.4,69.5,30.00,North,0,0.0,0.0,82,0.00,,SCT120,0.00,VWS V14.01,2013-07-01 08:16:00,
2013-07-01 04:21:00,75.2,69.3,30.00,North,0,0.0,0.0,82,0.00,,SCT120,0.00,VWS V14.01,2013-07-01 08:21:00,
2013-07-01 04:26:00,75.2,69.3,30.00,North,0,0.0,0.0,82,0.00,,SCT120,0.00,VWS V14.01,2013-07-01 08:26:00,
2013-07-01 04:31:00,75.2,69.7,30.00,North,0,0.0,0.0,83,0.00,,SCT120,0.00,VWS V14.01,2013-07-01 08:31:00,
2013-07-01 04:36:00,75.2,69.7,30.00,North,0,0.0,0.0,83,0.00,,SCT120,0.00,VWS V14.01,2013-07-01 08:36:00,
2013-07-01 04:41:00,75.0,69.5,30.00,North,0,0.0,0.0,83,0.00,,SCT120,0.00,VWS V14.01,2013-07-01 08:41:00,
2013-07-01 04:46:00,74.8,69.3,30.00,North,0,0.0,0.0,83,0.00,,SCT120,0.00,VWS V14.01,2013-07-01 08:46:00,
2013-07-01 04:51:00,74.7,69.2,30.00,North,0,0.0,0.0,83,0.00,,SCT120,0.00,VWS V14.01,2013-07-01 08:51:00,
2013-07-01 04:56:00,74.8,69.3,30.00,North,0,0.0,0.0,83,0.00,,SCT120,0.00,VWS V14.01,2013-07-01 08:56:00,
2013-07-01 05:01:00,74.8,69.3,30.00,North,0,0.0,0.0,83,0.00,,SCT120,0.00,VWS V14.01,2013-07-01 09:01:00,
2013-07-01 05:06:00,74.7,69.2,30.00,North,0,0.0,0.0,83,0.00,,SCT120,0.00,VWS V14.01,2013-07-01 09:06:00,
2013-07-01 05:11:00,74.7,69.2,30.00,North,0,0.0,0.0,83,0.00,,SCT120,0.00,VWS V14.01,2013-07-01 09:11:00,
2013-07-01 05:16:00,74.7,69.2,30.00,North,0,0.0,0.0,83,0.00,,SCT120,0.00,VWS V14.01,2013-07-01 09:16:00,
2013-07-01 05:21:00,74.5,69.3,30.00,North,0,0.0,0.0,84,0.00,,SCT120,0.00,VWS V14.01,2013-07-01 09:21:00,
2013-07-01 05:26:00,74.5,69.3,30.00,North,0,0.0,0.0,84,0.00,,SCT120,0.00,VWS V14.01,2013-07-01 09:26:00,
2013-07-01 05:31:00,74.5,69.3,30.00,North,0,0.0,0.0,84,0.00,,SCT120,0.00,VWS V14.01,2013-07-01 09:31:00,
2013-07-01 05:36:00,74.7,69.5,30.00,North,0,0.0,0.0,84,0.00,,SCT120,0.00,VWS V14.01,2013-07-01 09:36:00,
2013-07-01 05:41:00,74.5,69.3,30.03,North,0,0.0,0.0,84,0.00,,SCT120,0.00,VWS V14.01,2013-07-01 09:41:00,
2013-07-01 05:47:00,74.3,69.2,30.03,North,0,0.0,0.0,84,0.00,,SCT120,0.00,VWS V14.01,2013-07-01 09:47:00,
2013-07-01 05:52:00,74.3,69.2,30.03,North,0,0.0,0.0,84,0.00,,SCT120,0.00,VWS V14.01,2013-07-01 09:52:00,
2013-07-01 05:57:00,74.3,69.5,30.03,North,0,0.0,0.0,85,0.00,,SCT120,0.00,VWS V14.01,2013-07-01 09:57:00,
2013-07-01 06:02:00,74.3,69.5,30.03,North,0,0.0,0.0,85,0.00,,SCT120,0.00,VWS V14.01,2013-07-01 10:02:00,
2013-07-01 06:06:00,74.5,69.7,30.03,North,0,0.0,0.0,85,0.00,,SCT120,0.00,VWS V14.01,2013-07-01 10:06:00,
2013-07-01 06:11:00,74.7,69.9,30.03,North,0,0.0,0.0,85,0.00,,SCT120,0.00,VWS V14.01,2013-07-01 10:11:00,
2013-07-01 06:16:00,74.7,70.2,30.03,North,0,0.0,0.0,86,0.00,,SCT120,0.00,VWS V14.01,2013-07-01 10:16:00,
2013-07-01 06:21:00,74.5,70.0,30.03,North,0,0.0,0.0,86,0.00,,SCT120,0.00,VWS V14.01,2013-07-01 10:21:00,
2013-07-01 06:26:00,74.3,69.5,30.03,North,0,0.0,0.0,85,0.00,,SCT120,0.00,VWS V14.01,2013-07-01 10:26:00,
2013-07-01 06:31:00,74.3,69.8,30.03,North,0,0.0,0.0,86,0.00,,SCT120,0.00,VWS V14.01,2013-07-01 10:31:00,
2013-07-01 06:36:00,74.3,69.8,30.03,North,0,0.0,0.0,86,0.00,,SCT120,0.00,VWS V14.01,2013-07-01 10:36:00,
2013-07-01 06:41:00,74.5,70.0,30.03,North,0,0.0,0.0,86,0.00,,SCT120,0.00,VWS V14.01,2013-07-01 10:41:00,
2013-07-01 06:46:00,74.7,70.2,30.03,North,0,0.0,0.0,86,0.00,,SCT120,0.00,VWS V14.01,2013-07-01 10:46:00,
2013-07-01 06:51:00,74.7,70.2,30.03,North,0,0.0,0.0,86,0.00,,SCT120,0.00,VWS V14.01,2013-07-01 10:51:00,
2013-07-01 06:56:00,75.0,70.6,30.06,North,0,0.0,0.0,86,0.00,,SCT120,0.00,VWS V14.01,2013-07-01 10:56:00,
2013-07-01 07:01:00,75.4,70.9,30.06,North,0,0.0,0.0,86,0.00,,SCT120,0.00,VWS V14.01,2013-07-01 11:01:00,
2013-07-01 07:06:00,75.6,71.1,30.06,North,0,0.0,0.0,86,0.00,,SCT120,0.00,VWS V14.01,2013-07-01 11:06:00,
2013-07-01 07:11:00,75.7,71.3,30.06,North,0,0.0,0.0,86,0.00,,SCT120,0.00,VWS V14.01,2013-07-01 11:11:00,
2013-07-01 07:16:00,76.1,71.6,30.06,North,0,0.0,0.0,86,0.00,,SCT120,0.00,VWS V14.01,2013-07-01 11:16:00,
2013-07-01 07:21:00,76.6,72.1,30.06,North,0,0.0,0.0,86,0.00,,SCT120,0.00,VWS V14.01,2013-07-01 11:21:00,
2013-07-01 07:26:00,77.4,72.8,30.03,North,0,0.0,0.0,86,0.00,,SCT120,0.00,VWS V14.01,2013-07-01 11:26:00,
2013-07-01 07:31:00,78.3,73.7,30.03,North,0,0.0,0.0,86,0.00,,SCT120,0.00,VWS V14.01,2013-07-01 11:31:00,
2013-07-01 07:36:00,78.8,73.9,30.03,North,0,0.0,0.0,85,0.00,,SCT120,0.00,VWS V14.01,2013-07-01 11:36:00,
2013-07-01 07:41:00,79.3,74.1,30.06,North,0,0.0,0.0,84,0.00,,SCT120,0.00,VWS V14.01,2013-07-01 11:41:00,
2013-07-01 07:46:00,79.7,74.1,30.06,North,0,0.0,0.0,83,0.00,,SCT120,0.00,VWS V14.01,2013-07-01 11:46:00,
2013-07-01 07:51:00,80.1,74.1,30.06,North,0,0.0,0.0,82,0.00,,SCT120,0.00,VWS V14.01,2013-07-01 11:51:00,
2013-07-01 07:56:00,80.8,73.7,30.06,North,0,0.0,0.0,79,0.00,,SCT120,0.00,VWS V14.01,2013-07-01 11:56:00,
2013-07-01 08:01:00,81.1,73.6,30.06,North,0,0.0,0.0,78,0.00,,SCT120,0.00,VWS V14.01,2013-07-01 12:01:00,
2013-07-01 08:06:00,81.5,72.8,30.06,North,0,0.0,0.0,75,0.00,,SCT120,0.00,VWS V14.01,2013-07-01 12:06:00,
2013-07-01 08:11:00,81.5,69.9,30.06,North,0,0.0,0.0,68,0.00,,SCT120,0.00,VWS V14.01,2013-07-01 12:11:00,
2013-07-01 08:16:00,82.2,70.2,30.06,North,0,0.0,0.0,67,0.00,,SCT120,0.00,VWS V14.01,2013-07-01 12:16:00,
2013-07-01 08:21:00,82.8,68.4,30.06,North,0,0.0,0.0,62,0.00,,SCT120,0.00,VWS V14.01,2013-07-01 12:21:00,
2013-07-01 08:26:00,82.9,66.7,30.06,North,0,0.0,0.0,58,0.00,,SCT120,0.00,VWS V14.01,2013-07-01 12:26:00,
2013-07-01 08:31:00,83.3,66.0,30.06,North,0,0.0,0.0,56,0.00,,SCT120,0.00,VWS V14.01,2013-07-01 12:31:00,
2013-07-01 08:36:00,83.7,65.3,30.06,North,0,0.0,0.0,54,0.00,,SCT120,0.00,VWS V14.01,2013-07-01 12:36:00,
2013-07-01 08:41:00,84.0,65.1,30.06,North,0,0.0,0.0,53,0.00,,SCT120,0.00,VWS V14.01,2013-07-01 12:41:00,
2013-07-01 08:46:00,84.2,61.2,30.06,North,0,0.0,0.0,46,0.00,,SCT120,0.00,VWS V14.01,2013-07-01 12:46:00,
2013-07-01 08:51:00,84.7,62.3,30.06,North,0,0.0,0.0,47,0.00,,SCT120,0.00,VWS V14.01,2013-07-01 12:51:00,
2013-07-01 08:56:00,85.3,61.6,30.06,North,0,0.0,0.0,45,0.00,,SCT120,0.00,VWS V14.01,2013-07-01 12:56:00,
2013-07-01 09:01:00,85.3,61.6,30.06,North,0,0.0,0.0,45,0.00,,SCT120,0.00,VWS V14.01,2013-07-01 13:01:00,
2013-07-01 09:06:00,85.1,60.1,30.06,North,0,0.0,0.0,43,0.00,,SCT120,0.00,VWS V14.01,2013-07-01 13:06:00,
2013-07-01 09:11:00,85.5,61.1,30.03,North,0,0.0,0.0,44,0.00,,SCT120,0.00,VWS V14.01,2013-07-01 13:11:00,
2013-07-01 09:17:00,85.6,61.9,30.03,North,0,0.0,0.0,45,0.00,,SCT120,0.00,VWS V14.01,2013-07-01 13:17:00,
2013-07-01 09:22:00,85.6,60.6,30.03,North,0,0.0,0.0,43,0.00,,SCT120,0.00,VWS V14.01,2013-07-01 13:22:00,
2013-07-01 09:27:00,86.0,60.9,30.06,North,0,0.0,0.0,43,0.00,,SCT120,0.00,VWS V14.01,2013-07-01 13:27:00,
2013-07-01 09:32:00,86.2,61.1,30.06,North,0,0.0,0.0,43,0.00,,SCT120,0.00,VWS V14.01,2013-07-01 13:32:00,
2013-07-01 09:37:00,85.6,57.9,30.06,North,0,0.0,0.0,39,0.00,,SCT120,0.00,VWS V14.01,2013-07-01 13:37:00,
2013-07-01 09:41:00,85.6,57.9,30.06,North,0,0.0,0.0,39,0.00,,SCT120,0.00,VWS V14.01,2013-07-01 13:41:00,
2013-07-01 09:47:00,85.3,57.5,30.06,North,0,0.0,0.0,39,0.00,,SCT120,0.00,VWS V14.01,2013-07-01 13:47:00,
2013-07-01 09:51:00,85.1,55.2,30.06,North,0,0.0,0.0,36,0.00,,SCT120,0.00,VWS V14.01,2013-07-01 13:51:00,
2013-07-01 09:56:00,85.3,56.1,30.06,North,0,0.0,0.0,37,0.00,,SCT120,0.00,VWS V14.01,2013-07-01 13:56:00,
2013-07-01 10:01:00,86.2,57.6,30.06,North,0,0.0,0.0,38,0.00,,SCT120,0.00,VWS V14.01,2013-07-01 14:01:00,
2013-07-01 10:07:00,87.1,56.9,30.06,North,0,0.0,0.0,36,0.00,,SCT120,0.00,VWS V14.01,2013-07-01 14:07:00,
2013-07-01 10:11:00,86.7,53.4,30.06,North,0,0.0,0.0,32,0.00,,SCT120,0.00,VWS V14.01,2013-07-01 14:11:00,
2013-07-01 10:17:00,86.5,54.0,30.06,North,0,0.0,0.0,33,0.00,,SCT120,0.00,VWS V14.01,2013-07-01 14:17:00,
2013-07-01 10:21:00,87.8,54.3,30.06,North,0,0.0,0.0,32,0.00,,SCT120,0.00,VWS V14.01,2013-07-01 14:21:00,
2013-07-01 10:26:00,88.5,53.2,30.06,North,0,0.0,0.0,30,0.00,,SCT120,0.00,VWS V14.01,2013-07-01 14:26:00,
2013-07-01 10:31:00,88.3,53.0,30.06,North,0,0.0,0.0,30,0.00,,SCT120,0.00,VWS V14.01,2013-07-01 14:31:00,
2013-07-01 10:36:00,87.8,53.4,30.06,North,0,0.0,0.0,31,0.00,,SCT120,0.00,VWS V14.01,2013-07-01 14:36:00,
2013-07-01 10:42:00,87.6,54.2,30.06,North,0,0.0,0.0,32,0.00,,SCT120,0.00,VWS V14.01,2013-07-01 14:42:00,
2013-07-01 10:47:00,87.4,53.1,30.06,North,0,0.0,0.0,31,0.00,,SCT120,0.00,VWS V14.01,2013-07-01 14:47:00,
2013-07-01 10:52:00,87.3,53.0,30.06,North,0,0.0,0.0,31,0.00,,SCT120,0.00,VWS V14.01,2013-07-01 14:52:00,
2013-07-01 10:57:00,87.1,52.8,30.06,North,0,0.0,0.0,31,0.00,,SCT120,0.00,VWS V14.01,2013-07-01 14:57:00,
2013-07-01 11:02:00,86.9,53.5,30.06,North,0,0.0,0.0,32,0.00,,SCT120,0.00,VWS V14.01,2013-07-01 15:02:00,
2013-07-01 11:07:00,86.0,50.1,30.06,North,0,0.0,0.0,29,0.00,,SCT120,0.00,VWS V14.01,2013-07-01 15:07:00,
2013-07-01 11:12:00,85.3,56.8,30.06,North,0,0.0,0.0,38,0.00,,SCT120,0.00,VWS V14.01,2013-07-01 15:12:00,
2013-07-01 11:17:00,84.6,57.6,30.06,North,0,0.0,0.0,40,0.00,,SCT120,0.00,VWS V14.01,2013-07-01 15:17:00,
2013-07-01 11:22:00,84.0,56.4,30.06,North,0,0.0,0.0,39,0.00,,SCT120,0.00,VWS V14.01,2013-07-01 15:22:00,
2013-07-01 11:27:00,84.6,56.2,30.06,North,0,0.0,0.0,38,0.00,,SCT120,0.00,VWS V14.01,2013-07-01 15:27:00,
2013-07-01 11:32:00,84.7,54.9,30.06,North,0,0.0,0.0,36,0.00,,SCT120,0.00,VWS V14.01,2013-07-01 15:32:00,
2013-07-01 11:37:00,84.9,55.0,30.06,North,0,0.0,0.0,36,0.00,,SCT120,0.00,VWS V14.01,2013-07-01 15:37:00,
2013-07-01 11:42:00,85.3,55.3,30.06,North,0,0.0,0.0,36,0.00,,SCT120,0.00,VWS V14.01,2013-07-01 15:42:00,
2013-07-01 11:47:00,86.0,54.4,30.06,North,0,0.0,0.0,34,0.00,,SCT120,0.00,VWS V14.01,2013-07-01 15:47:00,
2013-07-01 11:52:00,86.9,55.2,30.06,North,0,0.0,0.0,34,0.00,,SCT120,0.00,VWS V14.01,2013-07-01 15:52:00,
2013-07-01 11:57:00,86.7,54.2,30.06,North,0,0.0,0.0,33,0.00,,SCT120,0.00,VWS V14.01,2013-07-01 15:57:00,
2013-07-01 12:02:00,86.9,54.4,30.06,North,0,0.0,0.0,33,0.00,,SCT120,0.00,VWS V14.01,2013-07-01 16:02:00,
2013-07-01 12:08:00,87.3,54.7,30.06,North,0,0.0,0.0,33,0.00,,SCT120,0.00,VWS V14.01,2013-07-01 16:08:00,
2013-07-01 12:13:00,88.2,54.6,30.06,North,0,0.0,0.0,32,0.00,,SCT120,0.00,VWS V14.01,2013-07-01 16:13:00,
2013-07-01 12:18:00,88.7,54.2,30.06,North,0,0.0,0.0,31,0.00,,SCT120,0.00,VWS V14.01,2013-07-01 16:18:00,
2013-07-01 12:24:00,88.5,54.9,30.06,North,0,0.0,0.0,32,0.00,,SCT120,0.00,VWS V14.01,2013-07-01 16:24:00,
2013-07-01 12:29:00,88.9,51.6,30.06,North,0,0.0,0.0,28,0.00,,SCT120,0.00,VWS V14.01,2013-07-01 16:29:00,
2013-07-01 12:34:00,88.7,49.5,30.06,North,0,0.0,0.0,26,0.00,,SCT120,0.00,VWS V14.01,2013-07-01 16:34:00,
2013-07-01 12:39:00,88.7,51.4,30.06,North,0,0.0,0.0,28,0.00,,SCT120,0.00,VWS V14.01,2013-07-01 16:39:00,
2013-07-01 12:44:00,88.2,52.8,30.06,North,0,0.0,0.0,30,0.00,,SCT120,0.00,VWS V14.01,2013-07-01 16:44:00,
2013-07-01 12:49:00,87.1,54.5,30.06,North,0,0.0,0.0,33,0.00,,SCT120,0.00,VWS V14.01,2013-07-01 16:49:00,
2013-07-01 12:54:00,87.1,56.9,30.06,North,0,0.0,0.0,36,0.00,,SCT120,0.00,VWS V14.01,2013-07-01 16:54:00,
2013-07-01 12:59:00,87.1,59.8,30.06,North,0,0.0,0.0,40,0.00,,SCT120,0.00,VWS V14.01,2013-07-01 16:59:00,
2013-07-01 13:04:00,86.2,58.3,30.06,North,0,0.0,0.0,39,0.00,,SCT120,0.00,VWS V14.01,2013-07-01 17:04:00,
2013-07-01 13:09:00,86.0,59.6,30.06,North,0,0.0,0.0,41,0.00,,SCT120,0.00,VWS V14.01,2013-07-01 17:09:00,
2013-07-01 13:15:00,85.6,57.9,30.06,North,0,0.0,0.0,39,0.00,,SCT120,0.00,VWS V14.01,2013-07-01 17:15:00,
2013-07-01 13:20:00,84.9,55.0,30.06,North,0,0.0,0.0,36,0.00,,SCT120,0.00,VWS V14.01,2013-07-01 17:20:00,
2013-07-01 13:25:00,84.9,55.8,30.06,North,0,0.0,0.0,37,0.00,,SCT120,0.00,VWS V14.01,2013-07-01 17:25:00,
2013-07-01 13:30:00,84.7,54.1,30.06,North,0,0.0,0.0,35,0.00,,SCT120,0.00,VWS V14.01,2013-07-01 17:30:00,
2013-07-01 13:35:00,84.6,55.5,30.06,North,0,0.0,0.0,37,0.00,,SCT120,0.00,VWS V14.01,2013-07-01 17:35:00,
2013-07-01 13:40:00,84.6,55.5,30.03,North,0,0.0,0.0,37,0.00,,SCT120,0.00,VWS V14.01,2013-07-01 17:40:00,
2013-07-01 13:45:00,84.7,55.6,30.03,North,0,0.0,0.0,37,0.00,,SCT120,0.00,VWS V14.01,2013-07-01 17:45:00,
2013-07-01 13:50:00,84.7,55.6,30.03,North,0,0.0,0.0,37,0.00,,SCT120,0.00,VWS V14.01,2013-07-01 17:50:00,
2013-07-01 13:55:00,84.9,56.5,30.03,North,0,0.0,0.0,38,0.00,,SCT120,0.00,VWS V14.01,2013-07-01 17:55:00,
2013-07-01 14:00:00,84.9,55.0,30.03,North,0,0.0,0.0,36,0.00,,SCT120,0.00,VWS V14.01,2013-07-01 18:00:00,
2013-07-01 14:05:00,85.1,52.8,30.03,North,0,0.0,0.0,33,0.00,,SCT120,0.00,VWS V14.01,2013-07-01 18:05:00,
2013-07-01 14:10:00,85.5,55.5,30.03,North,0,0.0,0.0,36,0.00,,SCT120,0.00,VWS V14.01,2013-07-01 18:10:00,
2013-07-01 14:15:00,85.6,54.9,30.03,North,0,0.0,0.0,35,0.00,,SCT120,0.00,VWS V14.01,2013-07-01 18:15:00,
2013-07-01 14:20:00,85.6,54.9,30.03,North,0,0.0,0.0,35,0.00,,SCT120,0.00,VWS V14.01,2013-07-01 18:20:00,
2013-07-01 14:25:00,85.6,57.9,30.03,North,0,0.0,0.0,39,0.00,,SCT120,0.00,VWS V14.01,2013-07-01 18:25:00,
2013-07-01 14:30:00,85.5,57.7,30.03,North,0,0.0,0.0,39,0.00,,SCT120,0.00,VWS V14.01,2013-07-01 18:30:00,
2013-07-01 14:35:00,85.5,58.4,30.03,North,0,0.0,0.0,40,0.00,,SCT120,0.00,VWS V14.01,2013-07-01 18:35:00,
2013-07-01 14:40:00,85.3,57.5,30.03,North,0,0.0,0.0,39,0.00,,SCT120,0.00,VWS V14.01,2013-07-01 18:40:00,
2013-07-01 14:45:00,85.1,57.4,30.03,North,0,0.0,0.0,39,0.00,,SCT120,0.00,VWS V14.01,2013-07-01 18:45:00,
2013-07-01 14:50:00,84.9,57.9,30.03,North,0,0.0,0.0,40,0.00,,SCT120,0.00,VWS V14.01,2013-07-01 18:50:00,
2013-07-01 14:55:00,84.9,58.6,30.03,North,0,0.0,0.0,41,0.00,,SCT120,0.00,VWS V14.01,2013-07-01 18:55:00,
2013-07-01 15:00:00,84.9,58.6,30.03,North,0,0.0,0.0,41,0.00,,SCT120,0.00,VWS V14.01,2013-07-01 19:00:00,
2013-07-01 15:05:00,84.9,57.9,30.03,North,0,0.0,0.0,40,0.00,,SCT120,0.00,VWS V14.01,2013-07-01 19:05:00,
2013-07-01 15:10:00,84.7,57.1,30.03,North,0,0.0,0.0,39,0.00,,SCT120,0.00,VWS V14.01,2013-07-01 19:10:00,
2013-07-01 15:15:00,84.9,57.9,30.03,North,0,0.0,0.0,40,0.00,,SCT120,0.00,VWS V14.01,2013-07-01 19:15:00,
2013-07-01 15:20:00,85.1,58.1,30.03,North,0,0.0,0.0,40,0.00,,SCT120,0.00,VWS V14.01,2013-07-01 19:20:00,
2013-07-01 15:25:00,85.3,58.2,30.03,North,0,0.0,0.0,40,0.00,,SCT120,0.00,VWS V14.01,2013-07-01 19:25:00,
2013-07-01 15:30:00,85.5,58.4,30.03,North,0,0.0,0.0,40,0.00,,SCT120,0.00,VWS V14.01,2013-07-01 19:30:00,
2013-07-01 15:35:00,85.6,58.6,30.03,North,0,0.0,0.0,40,0.00,,SCT120,0.00,VWS V14.01,2013-07-01 19:35:00,
2013-07-01 15:40:00,85.8,58.0,30.03,North,0,0.0,0.0,39,0.00,,SCT120,0.00,VWS V14.01,2013-07-01 19:40:00,
2013-07-01 15:45:00,86.0,58.2,30.03,North,0,0.0,0.0,39,0.00,,SCT120,0.00,VWS V14.01,2013-07-01 19:45:00,
2013-07-01 15:50:00,86.2,58.3,30.03,North,0,0.0,0.0,39,0.00,,SCT120,0.00,VWS V14.01,2013-07-01 19:50:00,
2013-07-01 15:55:00,86.4,58.5,30.03,North,0,0.0,0.0,39,0.00,,SCT120,0.00,VWS V14.01,2013-07-01 19:55:00,
2013-07-01 16:00:00,86.2,57.6,30.03,North,0,0.0,0.0,38,0.00,,SCT120,0.00,VWS V14.01,2013-07-01 20:00:00,
2013-07-01 16:05:00,86.2,57.6,30.03,North,0,0.0,0.0,38,0.00,,SCT120,0.00,VWS V14.01,2013-07-01 20:05:00,
2013-07-01 16:10:00,86.4,57.0,30.03,North,0,0.0,0.0,37,0.00,,SCT120,0.00,VWS V14.01,2013-07-01 20:10:00,
2013-07-01 16:15:00,86.2,56.1,30.03,North,0,0.0,0.0,36,0.00,,SCT120,0.00,VWS V14.01,2013-07-01 20:15:00,
2013-07-01 16:20:00,86.0,54.4,30.03,North,0,0.0,0.0,34,0.00,,SCT120,0.00,VWS V14.01,2013-07-01 20:20:00,
2013-07-01 16:25:00,86.2,55.3,30.03,North,0,0.0,0.0,35,0.00,,SCT120,0.00,VWS V14.01,2013-07-01 20:25:00,
2013-07-01 16:30:00,86.2,55.3,30.03,North,0,0.0,0.0,35,0.00,,SCT120,0.00,VWS V14.01,2013-07-01 20:30:00,
2013-07-01 16:35:00,86.4,55.5,30.03,North,0,0.0,0.0,35,0.00,,SCT120,0.00,VWS V14.01,2013-07-01 20:35:00,
2013-07-01 16:40:00,86.5,54.9,30.03,North,0,0.0,0.0,34,0.00,,SCT120,0.00,VWS V14.01,2013-07-01 20:40:00,
2013-07-01 16:45:00,86.4,54.7,30.03,North,0,0.0,0.0,34,0.00,,SCT120,0.00,VWS V14.01,2013-07-01 20:45:00,
2013-07-01 16:50:00,86.4,54.7,30.03,North,0,0.0,0.0,34,0.00,,SCT120,0.00,VWS V14.01,2013-07-01 20:50:00,
2013-07-01 16:55:00,86.5,55.7,30.00,North,0,0.0,0.0,35,0.00,,SCT120,0.00,VWS V14.01,2013-07-01 20:55:00,
2013-07-01 17:00:00,86.5,56.4,30.00,North,0,0.0,0.0,36,0.00,,SCT120,0.00,VWS V14.01,2013-07-01 21:00:00,
2013-07-01 17:05:00,86.5,54.9,30.00,North,0,0.0,0.0,34,0.00,,SCT120,0.00,VWS V14.01,2013-07-01 21:05:00,
2013-07-01 17:10:00,86.4,55.5,30.03,North,0,0.0,0.0,35,0.00,,SCT120,0.00,VWS V14.01,2013-07-01 21:10:00,
2013-07-01 17:15:00,86.4,55.5,30.03,North,0,0.0,0.0,35,0.00,,SCT120,0.00,VWS V14.01,2013-07-01 21:15:00,
2013-07-01 17:20:00,86.4,56.3,30.03,North,0,0.0,0.0,36,0.00,,SCT120,0.00,VWS V14.01,2013-07-01 21:20:00,
2013-07-01 17:25:00,86.4,55.5,30.03,North,0,0.0,0.0,35,0.00,,SCT120,0.00,VWS V14.01,2013-07-01 21:25:00,
2013-07-01 17:30:00,86.4,55.5,30.03,North,0,0.0,0.0,35,0.00,,SCT120,0.00,VWS V14.01,2013-07-01 21:30:00,
2013-07-01 17:35:00,86.4,55.5,30.03,North,0,0.0,0.0,35,0.00,,SCT120,0.00,VWS V14.01,2013-07-01 21:35:00,
2013-07-01 17:40:00,86.4,55.5,30.03,North,0,0.0,0.0,35,0.00,,SCT120,0.00,VWS V14.01,2013-07-01 21:40:00,
2013-07-01 17:45:00,86.4,55.5,30.03,North,0,0.0,0.0,35,0.00,,SCT120,0.00,VWS V14.01,2013-07-01 21:45:00,
2013-07-01 17:50:00,86.4,55.5,30.03,North,0,0.0,0.0,35,0.00,,SCT120,0.00,VWS V14.01,2013-07-01 21:50:00,
2013-07-01 17:55:00,86.2,55.3,30.03,North,0,0.0,0.0,35,0.00,,SCT120,0.00,VWS V14.01,2013-07-01 21:55:00,
2013-07-01 17:57:00,86.2,56.1,30.03,North,0,0.0,0.0,36,0.00,,SCT120,0.00,VWS V14.01,2013-07-01 21:57:00,
2013-07-01 18:02:00,86.0,56.0,30.03,North,0,0.0,0.0,36,0.00,,SCT120,0.00,VWS V14.01,2013-07-01 22:02:00,
2013-07-01 18:07:00,86.0,56.0,30.03,North,0,0.0,0.0,36,0.00,,SCT120,0.00,VWS V14.01,2013-07-01 22:07:00,
2013-07-01 18:12:00,85.8,57.3,30.03,North,0,0.0,0.0,38,0.00,,SCT120,0.00,VWS V14.01,2013-07-01 22:12:00,
2013-07-01 18:17:00,85.6,57.1,30.03,North,0,0.0,0.0,38,0.00,,SCT120,0.00,VWS V14.01,2013-07-01 22:17:00,
2013-07-01 18:22:00,85.5,57.7,30.03,North,0,0.0,0.0,39,0.00,,SCT120,0.00,VWS V14.01,2013-07-01 22:22:00,
2013-07-01 18:27:00,85.3,57.5,30.03,North,0,0.0,0.0,39,0.00,,SCT120,0.00,VWS V14.01,2013-07-01 22:27:00,
2013-07-01 18:32:00,85.1,57.4,30.03,North,0,0.0,0.0,39,0.00,,SCT120,0.00,VWS V14.01,2013-07-01 22:32:00,
2013-07-01 18:37:00,84.7,57.1,30.03,North,0,0.0,0.0,39,0.00,,SCT120,0.00,VWS V14.01,2013-07-01 22:37:00,
2013-07-01 18:42:00,84.4,56.7,30.03,North,0,0.0,0.0,39,0.00,,SCT120,0.00,VWS V14.01,2013-07-01 22:42:00,
2013-07-01 18:47:00,84.2,56.6,30.03,North,0,0.0,0.0,39,0.00,,SCT120,0.00,VWS V14.01,2013-07-01 22:47:00,
2013-07-01 18:52:00,84.0,56.4,30.03,North,0,0.0,0.0,39,0.00,,SCT120,0.00,VWS V14.01,2013-07-01 22:52:00,
2013-07-01 18:57:00,83.8,56.3,30.03,North,0,0.0,0.0,39,0.00,,SCT120,0.00,VWS V14.01,2013-07-01 22:57:00,
2013-07-01 19:02:00,83.8,57.0,30.03,North,0,0.0,0.0,40,0.00,,SCT120,0.00,VWS V14.01,2013-07-01 23:02:00,
2013-07-01 19:07:00,83.7,56.8,30.03,North,0,0.0,0.0,40,0.00,,SCT120,0.00,VWS V14.01,2013-07-01 23:07:00,
2013-07-01 19:12:00,83.5,56.6,30.03,North,0,0.0,0.0,40,0.00,,SCT120,0.00,VWS V14.01,2013-07-01 23:12:00,
2013-07-01 19:17:00,83.3,56.5,30.03,North,0,0.0,0.0,40,0.00,,SCT120,0.00,VWS V14.01,2013-07-01 23:17:00,
2013-07-01 19:22:00,83.1,57.0,30.03,North,0,0.0,0.0,41,0.00,,SCT120,0.00,VWS V14.01,2013-07-01 23:22:00,
2013-07-01 19:27:00,83.1,57.0,30.03,North,0,0.0,0.0,41,0.00,,SCT120,0.00,VWS V14.01,2013-07-01 23:27:00,
2013-07-01 19:32:00,82.9,56.8,30.03,North,0,0.0,0.0,41,0.00,,SCT120,0.00,VWS V14.01,2013-07-01 23:32:00,
2013-07-01 19:37:00,82.6,57.2,30.03,North,0,0.0,0.0,42,0.00,,SCT120,0.00,VWS V14.01,2013-07-01 23:37:00,
2013-07-01 19:42:00,82.6,57.2,30.03,North,0,0.0,0.0,42,0.00,,SCT120,0.00,VWS V14.01,2013-07-01 23:42:00,
2013-07-01 19:47:00,82.6,57.8,30.03,North,0,0.0,0.0,43,0.00,,SCT120,0.00,VWS V14.01,2013-07-01 23:47:00,
2013-07-01 19:52:00,82.6,58.5,30.03,North,0,0.0,0.0,44,0.00,,SCT120,0.00,VWS V14.01,2013-07-01 23:52:00,
2013-07-01 19:57:00,82.2,58.8,30.06,North,0,0.0,0.0,45,0.00,,SCT120,0.00,VWS V14.01,2013-07-01 23:57:00,
2013-07-01 20:02:00,82.0,59.2,30.06,North,0,0.0,0.0,46,0.00,,SCT120,0.00,VWS V14.01,2013-07-02 00:02:00,
2013-07-01 20:07:00,82.0,59.8,30.06,North,0,0.0,0.0,47,0.00,,SCT120,0.00,VWS V14.01,2013-07-02 00:07:00,
2013-07-01 20:12:00,81.9,60.3,30.06,North,0,0.0,0.0,48,0.00,,SCT120,0.00,VWS V14.01,2013-07-02 00:12:00,
2013-07-01 20:17:00,81.9,60.3,30.06,North,0,0.0,0.0,48,0.00,,SCT120,0.00,VWS V14.01,2013-07-02 00:17:00,
2013-07-01 20:22:00,81.5,60.5,30.06,North,0,0.0,0.0,49,0.00,,SCT120,0.00,VWS V14.01,2013-07-02 00:22:00,
2013-07-01 20:27:00,81.3,62.0,30.06,North,0,0.0,0.0,52,0.00,,SCT120,0.00,VWS V14.01,2013-07-02 00:27:00,
2013-07-01 20:32:00,81.3,63.1,30.06,North,0,0.0,0.0,54,0.00,,SCT120,0.00,VWS V14.01,2013-07-02 00:32:00,
2013-07-01 20:37:00,81.3,64.1,30.06,North,0,0.0,0.0,56,0.00,,SCT120,0.00,VWS V14.01,2013-07-02 00:37:00,
2013-07-01 20:42:00,81.1,64.5,30.06,North,0,0.0,0.0,57,0.00,,SCT120,0.00,VWS V14.01,2013-07-02 00:42:00,
2013-07-01 20:48:00,80.6,64.5,30.06,North,0,0.0,0.0,58,0.00,,SCT120,0.00,VWS V14.01,2013-07-02 00:48:00,
2013-07-01 20:53:00,80.4,65.3,30.06,North,0,0.0,0.0,60,0.00,,SCT120,0.00,VWS V14.01,2013-07-02 00:53:00,
2013-07-01 20:58:00,80.2,66.1,30.06,North,0,0.0,0.0,62,0.00,,SCT120,0.00,VWS V14.01,2013-07-02 00:58:00,
2013-07-01 21:03:00,80.1,66.8,30.06,North,0,0.0,0.0,64,0.00,,SCT120,0.00,VWS V14.01,2013-07-02 01:03:00,
2013-07-01 21:08:00,79.9,67.5,30.06,North,0,0.0,0.0,66,0.00,,SCT120,0.00,VWS V14.01,2013-07-02 01:08:00,
2013-07-01 21:13:00,79.7,67.8,30.06,North,0,0.0,0.0,67,0.00,,SCT120,0.00,VWS V14.01,2013-07-02 01:13:00,
2013-07-01 21:18:00,79.7,67.8,30.06,North,0,0.0,0.0,67,0.00,,SCT120,0.00,VWS V14.01,2013-07-02 01:18:00,
2013-07-01 21:23:00,79.9,68.4,30.06,North,0,0.0,0.0,68,0.00,,SCT120,0.00,VWS V14.01,2013-07-02 01:23:00,
2013-07-01 21:28:00,79.7,68.2,30.06,North,0,0.0,0.0,68,0.00,,SCT120,0.00,VWS V14.01,2013-07-02 01:28:00,
2013-07-01 21:33:00,79.5,68.0,30.06,North,0,0.0,0.0,68,0.00,,SCT120,0.00,VWS V14.01,2013-07-02 01:33:00,
2013-07-01 21:38:00,79.5,68.0,30.06,North,0,0.0,0.0,68,0.00,,SCT120,0.00,VWS V14.01,2013-07-02 01:38:00,
2013-07-01 21:43:00,79.3,67.9,30.09,North,0,0.0,0.0,68,0.00,,SCT120,0.00,VWS V14.01,2013-07-02 01:43:00,
2013-07-01 21:48:00,79.2,67.7,30.09,North,0,0.0,0.0,68,0.00,,SCT120,0.00,VWS V14.01,2013-07-02 01:48:00,
2013-07-01 21:53:00,79.0,67.5,30.09,North,0,0.0,0.0,68,0.00,,SCT120,0.00,VWS V14.01,2013-07-02 01:53:00,
2013-07-01 21:58:00,79.0,67.5,30.09,North,0,0.0,0.0,68,0.00,,SCT120,0.00,VWS V14.01,2013-07-02 01:58:00,
2013-07-01 22:03:00,78.8,67.8,30.09,North,0,0.0,0.0,69,0.00,,SCT120,0.00,VWS V14.01,2013-07-02 02:03:00,
2013-07-01 22:08:00,78.8,67.8,30.09,North,0,0.0,0.0,69,0.00,,SCT120,0.00,VWS V14.01,2013-07-02 02:08:00,
2013-07-01 22:13:00,78.8,67.8,30.09,North,0,0.0,0.0,69,0.00,,SCT120,0.00,VWS V14.01,2013-07-02 02:13:00,
2013-07-01 22:18:00,78.8,67.8,30.09,North,0,0.0,0.0,69,0.00,,SCT120,0.00,VWS V14.01,2013-07-02 02:18:00,
2013-07-01 22:23:00,78.8,67.8,30.09,North,0,0.0,0.0,69,0.00,,SCT120,0.00,VWS V14.01,2013-07-02 02:23:00,
2013-07-01 22:28:00,78.8,67.4,30.09,North,0,0.0,0.0,68,0.00,,SCT120,0.00,VWS V14.01,2013-07-02 02:28:00,
2013-07-01 22:33:00,78.8,67.4,30.09,North,0,0.0,0.0,68,0.00,,SCT120,0.00,VWS V14.01,2013-07-02 02:33:00,
2013-07-01 22:38:00,78.6,67.2,30.09,North,0,0.0,0.0,68,0.00,,SCT120,0.00,VWS V14.01,2013-07-02 02:38:00,
2013-07-01 22:43:00,78.4,67.4,30.09,North,0,0.0,0.0,69,0.00,,SCT120,0.00,VWS V14.01,2013-07-02 02:43:00,
2013-07-01 22:48:00,78.4,67.4,30.09,North,0,0.0,0.0,69,0.00,,SCT120,0.00,VWS V14.01,2013-07-02 02:48:00,
2013-07-01 22:53:00,78.4,67.4,30.09,North,0,0.0,0.0,69,0.00,,SCT120,0.00,VWS V14.01,2013-07-02 02:53:00,
2013-07-01 22:58:00,78.4,67.4,30.09,North,0,0.0,0.0,69,0.00,,SCT120,0.00,VWS V14.01,2013-07-02 02:58:00,
2013-07-01 23:03:00,78.3,67.3,30.09,North,0,0.0,0.0,69,0.00,,SCT120,0.00,VWS V14.01,2013-07-02 03:03:00,
2013-07-01 23:08:00,78.1,67.1,30.09,North,0,0.0,0.0,69,0.00,,SCT120,0.00,VWS V14.01,2013-07-02 03:08:00,
2013-07-01 23:13:00,78.1,67.5,30.09,North,0,0.0,0.0,70,0.00,,SCT120,0.00,VWS V14.01,2013-07-02 03:13:00,
2013-07-01 23:18:00,78.1,67.5,30.09,North,0,0.0,0.0,70,0.00,,SCT120,0.00,VWS V14.01,2013-07-02 03:18:00,
2013-07-01 23:23:00,77.9,67.3,30.09,North,0,0.0,0.0,70,0.00,,SCT120,0.00,VWS V14.01,2013-07-02 03:23:00,
2013-07-01 23:28:00,77.9,67.3,30.09,North,0,0.0,0.0,70,0.00,,SCT120,0.00,VWS V14.01,2013-07-02 03:28:00,
2013-07-01 23:33:00,77.7,67.2,30.09,North,0,0.0,0.0,70,0.00,,SCT120,0.00,VWS V14.01,2013-07-02 03:33:00,
2013-07-01 23:38:00,77.5,67.0,30.09,North,0,0.0,0.0,70,0.00,,SCT120,0.00,VWS V14.01,2013-07-02 03:38:00,
2013-07-01 23:43:00,77.5,67.4,30.09,North,0,0.0,0.0,71,0.00,,SCT120,0.00,VWS V14.01,2013-07-02 03:43:00,
2013-07-01 23:48:00,77.4,67.2,30.09,North,0,0.0,0.0,71,0.00,,SCT120,0.00,VWS V14.01,2013-07-02 03:48:00,
2013-07-01 23:53:00,77.4,67.2,30.09,North,0,0.0,0.0,71,0.00,,SCT120,0.00,VWS V14.01,2013-07-02 03:53:00,
2013-07-01 23:58:00,77.2,67.1,30.09,North,0,0.0,0.0,71,0.00,,SCT120,0.00,VWS V14.01,2013-07-02 03:58:00,